Location: *
(40.9167°N, 9.5000°E)
Time: 09:08:10
(UTC+00:00)

MOS 1 Rocket - Pass Details

Date: 09 April 2020
Orbit: 614 x 831 km, 97.4° (Epoch: 04 June)

Event Time Altitude Azimuth Distance (km) Brightness Sun altitude
Rises 19:16:41 0° 16° (NNE) 3,359 7.0 -15.3°
Reaches altitude 10° 19:19:05 10° 20° (NNE) 2,435 6.2 -15.7°
Maximum altitude 19:24:26 58° 99° (E) 966 3.7 -16.6°
Drops below altitude 10° 19:29:45 10° 178° (S) 2,415 5.8 -17.5°
Enters shadow 19:31:54 - 182° (S) 3,242 6.5 -17.9°
